Okmulgee, OK

5:34 PM CDT on July 29, 2016 (GMT -0500)
Okmulgee Regional

Weather History for KOKM - April, 2013

Change the Weather History Date:

Wednesday, April 24, 2013

  Actual Average (KMKO) Record (KMKO)
Temperature  
Mean Temperature 44 °F -  
Max Temperature 57 °F 71 °F 84 °F (2002)
Min Temperature 33 °F 49 °F 35 °F (2013)
Degree Days  
Heating Degree Days 20    
Moisture  
Dew Point 29 °F    
Average Humidity 61    
Maximum Humidity 89    
Minimum Humidity 30    
Precipitation  
Precipitation 0.00 in - - ()
Sea Level Pressure  
Sea Level Pressure 30.27 in    
Wind  
Wind Speed 8 mph (North)    
Max Wind Speed 14 mph    
Max Gust Speed 23 mph    
Visibility 10 miles    
Events      
Averages and records for this station are not official NWS values.
T = Trace of Precipitation, MM = Missing Value Source: NWS Daily Summary

Daily Weather History Graph

Daily Weather History Graph

Search for Another Location

Airport or City:

Trip Planner

Search our weather history database for the weather conditions in past years. The results will help you decide how hot, cold, wet, or windy it might be!

Date:

Astronomy

Apr. 24, 2013 Rise Set
Actual Time 6:39 AM CDT 8:04 PM CDT
Civil Twilight 6:12 AM CDT 8:31 PM CDT
Nautical Twilight 5:40 AM CDT 9:03 PM CDT
Astronomical Twilight 5:06 AM CDT 9:37 PM CDT
Moon 7:10 PM CDT (4/24) 5:41 AM CDT (4/24)
Length of Visible Light 14h 19m
Length of Day
13h 25m
Waxing Gibbous, 98% of the Moon is Illuminated
Apr 24
Waxing Gibbous
Apr 25
Full
May 2
Last Quarter
May 9
New
May 17
First Quarter

Hourly Weather History & Observations

Time (CDT) Temp. Windchill Dew Point Humidity Pressure Visibility Wind Dir Wind Speed Gust Speed Precip Events Conditions
12:15 AM 37.6 °F 29.1 °F 32.7 °F 83% 30.21 in 10.0 mi North 13.8 mph - N/A   Overcast
12:35 AM 37.6 °F 30.0 °F 32.4 °F 81% 30.21 in 10.0 mi North 11.5 mph - N/A   Overcast
12:55 AM 37.6 °F 30.0 °F 32.0 °F 80% 30.21 in 10.0 mi NNW 11.5 mph 16.1 mph N/A   Overcast
1:15 AM 37.6 °F 30.5 °F 32.4 °F 81% 30.21 in 10.0 mi NNW 10.4 mph - N/A   Overcast
1:35 AM 37.4 °F 29.8 °F 32.0 °F 81% 30.21 in 10.0 mi NNW 11.5 mph 16.1 mph N/A   Overcast
1:55 AM 37.4 °F 31.4 °F 32.0 °F 81% 30.21 in 10.0 mi NNW 8.1 mph - N/A   Overcast
2:15 AM 37.4 °F 30.3 °F 31.5 °F 79% 30.20 in 10.0 mi NNW 10.4 mph - N/A   Overcast
2:35 AM 37.4 °F 29.3 °F 31.1 °F 78% 30.21 in 10.0 mi NNW 12.7 mph 16.1 mph N/A   Overcast
2:55 AM 37.6 °F 31.6 °F 31.5 °F 79% 30.23 in 10.0 mi NW 8.1 mph 18.4 mph N/A   Overcast
3:15 AM 37.6 °F 31.0 °F 31.1 °F 77% 30.26 in 10.0 mi NW 9.2 mph - N/A   Overcast
3:35 AM 37.6 °F 31.0 °F 30.7 °F 76% 30.25 in 10.0 mi NW 9.2 mph - N/A   Overcast
3:55 AM 37.6 °F 31.0 °F 30.9 °F 77% 30.26 in 10.0 mi NW 9.2 mph 17.3 mph N/A   Overcast
4:15 AM 37.6 °F 31.6 °F 31.1 °F 77% 30.26 in 10.0 mi NNW 8.1 mph - N/A   Overcast
4:35 AM 37.4 °F 30.3 °F 31.5 °F 79% 30.25 in 10.0 mi NNW 10.4 mph 16.1 mph N/A   Overcast
4:55 AM 36.0 °F 29.0 °F 30.9 °F 82% 30.24 in 10.0 mi North 9.2 mph - N/A   Scattered Clouds
5:15 AM 35.6 °F 29.9 °F 31.1 °F 84% 30.26 in 10.0 mi NNW 6.9 mph - N/A   Clear
5:35 AM 34.9 °F 29.0 °F 30.9 °F 85% 30.26 in 10.0 mi NNW 6.9 mph - N/A   Clear
5:55 AM 34.7 °F 28.8 °F 30.9 °F 86% 30.27 in 10.0 mi NNW 6.9 mph - N/A   Clear
6:15 AM 34.7 °F 30.6 °F 30.9 °F 86% 30.28 in 10.0 mi NNW 4.6 mph - N/A   Clear
6:35 AM 33.8 °F 28.6 °F 30.7 °F 89% 30.28 in 10.0 mi NNW 5.8 mph - N/A   Clear
6:55 AM 33.8 °F 27.7 °F 30.6 °F 88% 30.28 in 10.0 mi NNW 6.9 mph - N/A   Clear
7:15 AM 33.8 °F 29.6 °F 30.2 °F 87% 30.29 in 10.0 mi NNW 4.6 mph - N/A   Clear
7:35 AM 34.7 °F 30.6 °F 30.7 °F 85% 30.29 in 10.0 mi NNW 4.6 mph - N/A   Clear
7:55 AM 35.2 °F 32.4 °F 31.3 °F 85% 30.30 in 10.0 mi WNW 3.5 mph - N/A   Clear
8:15 AM 36.1 °F 33.5 °F 31.5 °F 83% 30.30 in 10.0 mi WNW 3.5 mph - N/A   Clear
8:35 AM 36.7 °F 32.9 °F 30.9 °F 80% 30.31 in 10.0 mi WNW 4.6 mph - N/A   Scattered Clouds
8:55 AM 37.2 °F 33.6 °F 30.6 °F 77% 30.31 in 10.0 mi NW 4.6 mph - N/A   Scattered Clouds
9:15 AM 38.8 °F 35.4 °F 30.9 °F 73% 30.31 in 10.0 mi NNW 4.6 mph - N/A   Scattered Clouds
9:35 AM 40.3 °F 36.3 °F 29.1 °F 64% 30.31 in 10.0 mi NNW 5.8 mph - N/A   Clear
9:55 AM 42.3 °F 36.8 °F 27.9 °F 57% 30.32 in 10.0 mi North 9.2 mph 16.1 mph N/A   Scattered Clouds
10:15 AM 42.4 °F 36.1 °F 26.1 °F 52% 30.32 in 10.0 mi North 11.5 mph 16.1 mph N/A   Clear
10:35 AM 43.0 °F 37.7 °F 25.9 °F 51% 30.33 in 10.0 mi North 9.2 mph 17.3 mph N/A   Clear
10:55 AM 43.7 °F 37.7 °F 26.2 °F 50% 30.32 in 10.0 mi WNW 11.5 mph - N/A   Clear
11:15 AM 44.6 °F 39.2 °F 25.3 °F 47% 30.32 in 10.0 mi North 10.4 mph - N/A   Clear
11:35 AM 46.2 °F 40.5 °F 25.3 °F 44% 30.31 in 10.0 mi North 12.7 mph 23.0 mph N/A   Clear
11:55 AM 46.6 °F - 25.9 °F 44% 30.31 in 10.0 mi North 6.9 mph - N/A   Clear
12:15 PM 47.5 °F - 23.9 °F 40% 30.31 in 10.0 mi North 8.1 mph - N/A   Clear
12:35 PM 48.4 °F - 24.8 °F 40% 30.32 in 10.0 mi NNW 4.6 mph - N/A   Clear
12:55 PM 49.1 °F - 25.9 °F 40% 30.31 in 10.0 mi Calm Calm - N/A   Clear
1:15 PM 50.5 °F - 25.2 °F 37% 30.31 in 10.0 mi NNE 8.1 mph - N/A   Clear
1:55 PM 51.3 °F - 24.3 °F 35% 30.30 in 10.0 mi ENE 4.6 mph - N/A   Clear
2:15 PM 52.7 °F - 24.4 °F 33% 30.29 in 10.0 mi North 6.9 mph - N/A   Clear
2:35 PM 52.3 °F - 25.7 °F 36% 30.28 in 10.0 mi NNE 9.2 mph - N/A   Clear
2:55 PM 54.1 °F - 25.5 °F 33% 30.29 in 10.0 mi NNW 9.2 mph - N/A   Clear
3:15 PM 54.5 °F - 26.6 °F 34% 30.28 in 10.0 mi North 8.1 mph 16.1 mph N/A   Clear
3:35 PM 55.2 °F - 26.8 °F 34% 30.27 in 10.0 mi North 6.9 mph - N/A   Clear
3:55 PM 55.6 °F - 26.4 °F 33% 30.26 in 10.0 mi North 11.5 mph 17.3 mph N/A   Clear
4:15 PM 55.4 °F - 27.0 °F 34% 30.26 in 10.0 mi NE 8.1 mph - N/A   Clear
4:35 PM 55.8 °F - 24.8 °F 30% 30.25 in 10.0 mi NNW 3.5 mph - N/A   Clear
4:55 PM 55.8 °F - 26.2 °F 32% 30.24 in 10.0 mi NE 5.8 mph - N/A   Clear
5:15 PM 56.3 °F - 25.9 °F 31% 30.24 in 10.0 mi NE 5.8 mph 9.2 mph N/A   Clear
5:55 PM 56.5 °F - 27.9 °F 33% 30.24 in 10.0 mi NE 6.9 mph - N/A   Clear
6:15 PM 56.3 °F - 27.9 °F 34% 30.24 in 10.0 mi ENE 5.8 mph - N/A   Clear
6:35 PM 55.9 °F - 26.6 °F 32% 30.25 in 10.0 mi Calm Calm - N/A   Clear
6:55 PM 55.9 °F - 27.1 °F 33% 30.25 in 10.0 mi East 3.5 mph - N/A   Clear
7:15 PM 55.4 °F - 27.1 °F 34% 30.25 in 10.0 mi NNE 5.8 mph - N/A   Clear
7:35 PM 54.0 °F - 30.7 °F 41% 30.26 in 10.0 mi East 4.6 mph - N/A   Clear
7:55 PM 51.4 °F - 32.2 °F 48% 30.26 in 10.0 mi East 3.5 mph - N/A   Clear
8:15 PM 48.4 °F - 34.5 °F 59% 30.26 in 10.0 mi Calm Calm - N/A   Clear
8:35 PM 48.2 °F - 33.6 °F 57% 30.27 in 10.0 mi Calm Calm - N/A   Clear
8:55 PM 47.8 °F - 33.4 °F 57% 30.28 in 10.0 mi ESE 3.5 mph - N/A   Clear
10:15 PM 44.4 °F - 33.3 °F 65% 30.30 in 10.0 mi Calm Calm - N/A   Clear
10:35 PM 43.3 °F - 33.3 °F 68% 30.31 in 10.0 mi Calm Calm - N/A   Clear
10:55 PM 44.6 °F - 32.0 °F 61% 30.31 in 10.0 mi Calm Calm - N/A   Clear
11:15 PM 39.9 °F - 35.8 °F 85% 30.32 in 10.0 mi Calm Calm - N/A   Clear
11:35 PM 40.3 °F - 32.0 °F 72% 30.32 in 10.0 mi Calm Calm - N/A   Clear
11:55 PM 38.7 °F - 33.1 °F 80% 30.33 in 10.0 mi Calm Calm - N/A   Clear